Simultaneous Nadir Overpasses (SNOs) Predictions

Prediction of SNOs between AQUA and NPP Satellite Orbit:

Table of predicted SNOs for the next 14.0 days since TLE Epoch: 3/4/2016
Index Date (AQUA) Time (AQUA) Lat,Lon (AQUA) SZA (AQUA ) Date (NPP) Time (NPP) Lat,Lon (NPP) SZA (NPP ) Distance(km) Time Diff (sec)
1 03/05/2016 05:32:58 74.76, -27.46 104.91 03/05/2016 05:32:23 74.75, -27.48 104.95 0.72 35
2 03/05/2016 06:21:59 -76.07, 143.89 76.59 03/05/2016 06:22:41 -76.07, 143.88 76.63 0.25 42
3 03/07/2016 21:49:17 75.33, 89.93 103.23 03/07/2016 21:49:04 75.33, 89.95 103.23 0.50 13
4 03/07/2016 22:38:20 -76.52, -98.77 78.17 03/07/2016 22:39:24 -76.53, -98.72 78.24 1.35 64
5 03/10/2016 13:16:44 -74.19, 35.28 76.57 03/10/2016 13:15:37 -74.19, 35.27 76.50 0.35 67
6 03/10/2016 14:05:44 75.47,-153.78 102.00 03/10/2016 14:05:54 75.46,-153.86 102.01 2.54 10
7 03/13/2016 05:33:06 -74.53, 151.98 78.01 03/13/2016 05:32:22 -74.52, 151.91 77.95 2.18 44
8 03/13/2016 06:21:58 76.19, -35.73 100.11 03/13/2016 06:22:30 76.20, -35.67 100.06 1.71 32
9 03/15/2016 21:49:26 -75.00, -90.94 79.61 03/15/2016 21:49:05 -74.99, -91.02 79.57 2.61 21
10 03/15/2016 22:38:21 76.50, 81.15 98.68 03/15/2016 22:39:16 76.50, 81.21 98.62 1.69 55
11 03/18/2016 13:17:51 70.57,-151.44 104.05 03/18/2016 13:16:37 70.67,-151.81 104.15 17.27 74
12 03/18/2016 14:05:45 -75.51, 26.32 81.25 03/18/2016 14:05:47 -75.50, 26.26 81.24 1.55 2




NCC Satellite Simultaneous Nadir Overpasses (SNOs) Prediction Service
